08/10/2011,00:00:07,   0.0,  2.1,  275, +9.8,  86.8,    0.2,  +12.8,  +13.2,  +10.4,+1100.00,21
08/10/2011,00:00:25,   0.0,  3.3,  223, +9.8,  86.9,    0.2,  +12.8,  +13.2,  +10.4,+1100.00,1E
08/10/2011,00:00:43,   0.0,  2.1,  260, +9.8,  86.9,    0.2,  +12.7,  +13.2,  +10.4,+1100.00,1B
08/10/2011,00:01:10,   0.0,  2.1,  233, +9.7,  87.0,    0.0,  +12.9,  +13.2,  +10.4,+1100.00,0D
08/10/2011,00:01:28,   0.0,  1.5,  267, +9.8,  87.0,    0.2,  +12.9,  +13.1,  +10.4,+1100.00,22
08/10/2011,00:01:46,   0.0,  2.8,  252, +9.8,  87.0,    0.2,  +12.9,  +13.1,  +10.4,+1100.00,20
08/10/2011,00:02:03,   0.0,  2.4,  238, +9.8,  87.0,    0.2,  +12.9,  +13.1,  +10.4,+1100.00,1A
08/10/2011,00:02:29,   0.0,  3.2,  239, +9.8,  87.1,    0.4,  +12.8,  +13.1,  +10.4,+1100.00,24
08/10/2011,00:02:47,   0.0,  3.1,  252, +9.8,  87.0,    0.3,  +12.9,  +13.2,  +10.4,+1100.00,1E
08/10/2011,00:03:05,   0.0,  3.0,  235, +9.8,  87.0,    0.3,  +12.8,  +13.2,  +10.3,+1100.00,17
08/10/2011,00:03:23,   0.0,  1.2,  262, +9.7,  87.1,    0.1,  +12.8,  +13.1,  +10.4,+1100.00,15
08/10/2011,00:03:49,   0.0,  1.8,  224, +9.7,  87.1,    0.2,  +12.9,  +13.1,  +10.4,+1100.00,23
08/10/2011,00:04:07,   0.0,  2.2,  211, +9.8,  87.1,    0.3,  +12.9,  +13.2,  +10.4,+1100.00,18
08/10/2011,00:04:25,   0.0,  3.3,  227, +9.8,  87.1,    0.2,  +12.8,  +13.2,  +10.4,+1100.00,1F
08/10/2011,00:04:43,   0.0,  3.5,  223, +9.8,  87.2,    0.1,  +12.8,  +13.2,  +10.4,+1100.00,1D
08/10/2011,00:05:09,   0.0,  2.5,  244, +9.7,  87.2,    0.1,  +12.8,  +13.1,  +10.4,+1100.00,20
08/10/2011,00:05:27,   0.0,  3.3,  243, +9.8,  87.2,    0.3,  +12.9,  +13.1,  +10.4,+1100.00,22
08/10/2011,00:05:45,   0.0,  3.1,  248, +9.7,  87.2,    0.2,  +12.9,  +13.1,  +10.4,+1100.00,23
08/10/2011,00:06:03,   0.0,  2.3,  274, +9.7,  87.2,    0.2,  +12.8,  +13.2,  +10.4,+1100.00,1E
08/10/2011,00:06:29,   0.0,  2.9,  245, +9.8,  87.3,    0.2,  +13.0,  +13.1,  +10.4,+1100.00,24
08/10/2011,00:06:47,   0.0,  1.7,  238, +9.7,  87.3,    0.2,  +12.9,  +13.1,  +10.4,+1100.00,2A
08/10/2011,00:07:05,   0.0,  2.4,  248, +9.8,  87.3,    0.2,  +12.9,  +13.1,  +10.4,+1100.00,25
08/10/2011,00:07:30,   0.0,  2.9,  281, +9.7,  87.3,    0.1,  +12.8,  +13.1,  +10.4,+1100.00,22
08/10/2011,00:07:48,   0.0,  1.4,  222, +9.8,  87.4,    0.1,  +12.9,  +13.1,  +10.4,+1100.00,23
08/10/2011,00:08:06,   0.0,  1.4,  243, +9.8,  87.4,    0.3,  +13.0,  +13.1,  +10.4,+1100.00,1B
08/10/2011,00:08:24,   0.0,  3.5,  250, +9.8,  87.4,    0.1,  +12.9,  +13.1,  +10.4,+1100.00,22
08/10/2011,00:08:50,   0.0,  2.4,  253, +9.8,  87.4,    0.1,  +12.8,  +13.2,  +10.4,+1100.00,22
08/10/2011,00:09:08,   0.0,  3.0,  238, +9.8,  87.4,    0.2,  +12.9,  +13.1,  +10.4,+1100.00,27
08/10/2011,00:09:26,   0.0,  3.1,  253, +9.7,  87.4,    0.1,  +12.9,  +13.1,  +10.4,+1100.00,23
08/10/2011,00:09:44,   0.0,  2.6,  249, +9.8,  87.4,    0.3,  +12.9,  +13.1,  +10.4,+1100.00,2F
08/10/2011,00:10:09,   0.0,  1.9,  262, +9.8,  87.4,    0.1,  +12.8,  +13.2,  +10.3,+1100.00,22
08/10/2011,00:10:27,   0.0,  1.8,  250, +9.8,  87.4,    0.1,  +12.9,  +13.2,  +10.4,+1100.00,20
08/10/2011,00:10:45,   0.0,  2.5,  223, +9.8,  87.4,    0.3,  +12.8,  +13.2,  +10.3,+1100.00,1E
08/10/2011,00:11:03,   0.0,  4.0,  236, +9.7,  87.4,    0.1,  +12.9,  +13.1,  +10.4,+1100.00,18
08/10/2011,00:11:29,   0.0,  2.9,  230, +9.7,  87.4,    0.2,  +12.9,  +13.1,  +10.3,+1100.00,21
08/10/2011,00:11:47,   0.0,  1.8,  214, +9.8,  87.4,    0.2,  +13.0,  +13.1,  +10.4,+1100.00,1B
08/10/2011,00:12:05,   0.0,  3.2,  241, +9.8,  87.5,    0.2,  +12.9,  +13.1,  +10.3,+1100.00,1A
08/10/2011,00:12:30,   0.0,  2.6,  244, +9.8,  87.5,    0.0,  +12.8,  +13.1,  +10.3,+1100.00,1B
08/10/2011,00:12:48,   0.0,  2.3,  256, +9.7,  87.5,    0.2,  +12.8,  +13.1,  +10.3,+1100.00,25
08/10/2011,00:13:06,   0.0,  3.3,  235, +9.8,  87.6,    0.3,  +12.9,  +13.2,  +10.3,+1100.00,23
08/10/2011,00:13:24,   0.0,  3.7,  228, +9.7,  87.4,    0.1,  +12.8,  +13.2,  +10.3,+1100.00,23
08/10/2011,00:13:50,   0.0,  3.3,  233, +9.7,  87.4,    0.4,  +12.9,  +13.1,  +10.3,+1100.00,1D
08/10/2011,00:14:08,   0.0,  2.8,  202, +9.8,  87.4,    0.1,  +12.9,  +13.1,  +10.3,+1100.00,1F
08/10/2011,00:14:26,   0.0,  2.4,  228, +9.7,  87.4,    0.1,  +12.8,  +13.1,  +10.3,+1100.00,21
08/10/2011,00:14:44,   0.0,  2.4,  238, +9.8,  87.5,    0.2,  +12.9,  +13.1,  +10.3,+1100.00,26
08/10/2011,00:15:09,   0.0,  3.1,  235, +9.7,  87.4,    0.1,  +12.8,  +13.1,  +10.3,+1100.00,1F
08/10/2011,00:15:27,   0.0,  2.7,  246, +9.8,  87.5,    0.1,  +12.9,  +13.1,  +10.3,+1100.00,29
08/10/2011,00:15:45,   0.0,  2.9,  244, +9.8,  87.4,    0.3,  +12.9,  +13.1,  +10.3,+1100.00,2A
08/10/2011,00:16:03,   0.0,  2.7,  215, +9.8,  87.4,    0.1,  +12.8,  +13.2,  +10.3,+1100.00,1F
08/10/2011,00:16:29,   0.0,  3.2,  231, +9.7,  87.4,    0.1,  +12.7,  +13.2,  +10.2,+1100.00,1E
08/10/2011,00:16:47,   0.0,  2.3,  253, +9.7,  87.4,    0.2,  +12.8,  +13.2,  +10.3,+1100.00,25
08/10/2011,00:17:05,   0.0,  2.6,  242, +9.8,  87.5,    0.2,  +12.8,  +13.1,  +10.3,+1100.00,22
08/10/2011,00:17:30,   0.0,  2.6,  252, +9.7,  87.5,    0.1,  +12.9,  +13.1,  +10.3,+1100.00,20
08/10/2011,00:17:48,   0.0,  2.4,  240, +9.8,  87.5,    0.1,  +12.7,  +13.2,  +10.3,+1100.00,24
08/10/2011,00:18:06,   0.0,  1.9,  260, +9.8,  87.4,    0.3,  +12.9,  +13.1,  +10.3,+1100.00,27
08/10/2011,00:18:24,   0.0,  1.7,  258, +9.8,  87.5,    0.5,  +12.8,  +13.2,  +10.3,+1100.00,2F
08/10/2011,00:18:50,   0.0,  2.6,  238, +9.8,  87.4,    0.3,  +12.8,  +13.2,  +10.3,+1100.00,29
08/10/2011,00:19:08,   0.0,  2.8,  232, +9.8,  87.4,    0.4,  +12.8,  +13.2,  +10.3,+1100.00,2A
08/10/2011,00:19:26,   0.0,  3.1,  246, +9.8,  87.4,    0.3,  +12.8,  +13.1,  +10.3,+1100.00,27
08/10/2011,00:19:43,   0.0,  2.4,  238, +9.8,  87.4,    0.2,  +12.9,  +13.1,  +10.3,+1100.00,29
08/10/2011,00:20:09,   0.0,  1.5,  230, +9.8,  87.4,    0.1,  +12.8,  +13.2,  +10.3,+1100.00,1A
08/10/2011,00:20:27,   0.0,  2.5,  247, +9.8,  87.4,    0.3,  +12.9,  +13.1,  +10.3,+1100.00,25
08/10/2011,00:20:45,   0.0,  3.1,  241, +9.8,  87.4,    0.3,  +12.9,  +13.2,  +10.3,+1100.00,1D
08/10/2011,00:21:03,   0.0,  3.5,  242, +9.8,  87.3,    0.1,  +12.8,  +13.1,  +10.3,+1100.00,18
08/10/2011,00:21:29,   0.0,  1.8,  238, +9.7,  87.4,    0.2,  +12.8,  +13.1,  +10.3,+1100.00,27
08/10/2011,00:21:47,   0.0,  1.9,  203, +9.8,  87.4,    0.4,  +12.8,  +13.3,  +10.2,+1100.00,24
08/10/2011,00:22:05,   0.0,  2.0,  230, +9.8,  87.3,    0.1,  +12.8,  +13.2,  +10.3,+1100.00,13
08/10/2011,00:22:23,   0.0,  2.4,  214, +9.8,  87.3,    0.1,  +12.9,  +13.1,  +10.3,+1100.00,19
08/10/2011,00:22:49,   0.0,  1.8,  249, +9.7,  87.4,    0.3,  +12.7,  +13.2,  +10.3,+1100.00,2D
08/10/2011,00:23:07,   0.0,  2.8,  225, +9.8,  87.5,    0.3,  +12.9,  +13.2,  +10.3,+1100.00,27
08/10/2011,00:23:25,   0.0,  3.5,  227, +9.7,  87.4,    0.1,  +12.9,  +13.1,  +10.4,+1100.00,23
08/10/2011,00:23:43,   0.0,  3.4,  230, +9.8,  87.3,    0.3,  +12.9,  +13.1,  +10.3,+1100.00,1D
08/10/2011,00:24:09,   0.0,  3.0,  234, +9.7,  87.3,    0.1,  +12.9,  +13.1,  +10.3,+1100.00,1D
08/10/2011,00:24:27,   0.0,  2.4,  221, +9.8,  87.3,    0.1,  +12.9,  +13.1,  +10.3,+1100.00,1D
08/10/2011,00:24:45,   0.0,  3.1,  213, +9.8,  87.3,    0.2,  +12.9,  +13.1,  +10.3,+1100.00,1D
08/10/2011,00:25:10,   0.0,  4.3,  236, +9.7,  87.3,    0.1,  +12.9,  +13.1,  +10.3,+1100.00,1C
08/10/2011,00:25:28,   0.0,  3.1,  240, +9.7,  87.3,    0.1,  +12.9,  +13.1,  +10.3,+1100.00,1D
08/10/2011,00:25:46,   0.0,  2.4,  239, +9.7,  87.3,    0.4,  +12.8,  +13.2,  +10.2,+1100.00,29
08/10/2011,00:26:04,   0.0,  2.9,  235, +9.7,  87.3,    0.2,  +12.8,  +13.1,  +10.3,+1100.00,23
08/10/2011,00:26:30,   0.0,  2.1,  216, +9.7,  87.3,    0.5,  +12.9,  +13.1,  +10.3,+1100.00,1D
08/10/2011,00:26:48,   0.0,  4.2,  221, +9.7,  87.4,    0.1,  +12.9,  +13.1,  +10.3,+1100.00,22
08/10/2011,00:27:06,   0.0,  2.0,  243, +9.7,  87.4,    0.4,  +12.9,  +13.1,  +10.3,+1100.00,20
08/10/2011,00:27:24,   0.0,  4.4,  233, +9.7,  87.3,    0.2,  +12.9,  +13.1,  +10.3,+1100.00,22
08/10/2011,00:27:49,   0.0,  2.2,  207, +9.7,  87.4,    0.4,  +12.8,  +13.2,  +10.2,+1100.00,28
08/10/2011,00:28:07,   0.0,  2.4,  235, +9.7,  87.4,    0.2,  +12.9,  +13.1,  +10.3,+1100.00,25
08/10/2011,00:28:25,   0.0,  3.8,  223, +9.7,  87.4,    0.3,  +13.0,  +13.1,  +10.3,+1100.00,20
08/10/2011,00:28:43,   0.0,  3.2,  217, +9.7,  87.4,    0.2,  +12.8,  +13.1,  +10.2,+1100.00,22
08/10/2011,00:29:09,   0.0,  4.4,  236, +9.7,  87.4,    0.1,  +12.8,  +13.2,  +10.2,+1100.00,29
08/10/2011,00:29:27,   0.0,  4.4,  243, +9.7,  87.5,    0.2,  +12.9,  +13.1,  +10.2,+1100.00,29
08/10/2011,00:29:45,   0.0,  2.5,  273, +9.7,  87.5,    0.2,  +12.8,  +13.2,  +10.2,+1100.00,2B
08/10/2011,00:30:10,   0.0,  3.7,  231, +9.7,  87.5,    0.0,  +12.8,  +13.1,  +10.2,+1100.00,15
08/10/2011,00:30:28,   0.0,  2.6,  212, +9.7,  87.5,    0.1,  +12.9,  +13.1,  +10.2,+1100.00,1D
08/10/2011,00:30:46,   0.0,  2.2,  202, +9.7,  87.5,    0.3,  +12.9,  +13.2,  +10.2,+1100.00,1B
08/10/2011,00:31:04,   0.0,  2.6,  253, +9.7,  87.6,    0.0,  +12.9,  +13.1,  +10.2,+1100.00,1D
08/10/2011,00:31:30,   0.0,  2.3,  235, +9.7,  87.6,    0.3,  +12.8,  +13.1,  +10.2,+1100.00,1B
08/10/2011,00:31:48,   0.0,  2.6,  236, +9.7,  87.6,    0.1,  +12.8,  +13.1,  +10.2,+1100.00,26
08/10/2011,00:32:06,   0.0,  2.3,  253, +9.7,  87.6,    0.2,  +12.7,  +13.2,  +10.1,+1100.00,1D
08/10/2011,00:32:24,   0.0,  2.2,  228, +9.7,  87.6,    0.1,  +12.9,  +13.1,  +10.2,+1100.00,1F
08/10/2011,00:32:49,   0.0,  2.6,  238, +9.6,  87.6,    0.1,  +12.8,  +13.2,  +10.2,+1100.00,2A
08/10/2011,00:33:07,   0.0,  4.5,  241, +9.6,  87.6,    0.2,  +12.7,  +13.2,  +10.2,+1100.00,20
08/10/2011,00:33:25,   0.0,  3.7,  254, +9.7,  87.5,    0.3,  +13.0,  +13.1,  +10.2,+1100.00,1F
08/10/2011,00:33:43,   0.0,  3.0,  214, +9.6,  87.5,    0.1,  +12.9,  +13.1,  +10.3,+1100.00,1A
08/10/2011,00:34:09,   0.0,  3.2,  237, +9.7,  87.6,    0.2,  +12.9,  +13.1,  +10.2,+1100.00,26
08/10/2011,00:34:27,   0.0,  2.9,  239, +9.7,  87.6,    0.3,  +12.8,  +13.1,  +10.2,+1100.00,2E
08/10/2011,00:34:45,   0.0,  3.7,  222, +9.7,  87.6,    0.2,  +12.8,  +13.2,  +10.2,+1100.00,25
08/10/2011,00:35:10,   0.0,  3.2,  235, +9.7,  87.6,    0.1,  +12.8,  +13.1,  +10.2,+1100.00,1B
08/10/2011,00:35:28,   0.0,  2.4,  252, +9.7,  87.6,    0.0,  +12.8,  +13.1,  +10.2,+1100.00,23
08/10/2011,00:35:46,   0.0,  2.7,  232, +9.6,  87.6,    0.2,  +12.9,  +13.2,  +10.2,+1100.00,27
08/10/2011,00:36:04,   0.0,  4.2,  212, +9.6,  87.6,    0.2,  +12.9,  +13.1,  +10.3,+1100.00,1D
08/10/2011,00:36:30,   0.0,  2.7,  239, +9.6,  87.7,    0.1,  +12.8,  +13.2,  +10.2,+1100.00,27
08/10/2011,00:36:48,   0.0,  2.5,  245, +9.6,  87.6,    0.2,  +12.8,  +13.2,  +10.1,+1100.00,2A
08/10/2011,00:37:06,   0.0,  4.8,  232, +9.6,  87.8,    0.2,  +13.0,  +13.0,  +10.2,+1100.00,20
08/10/2011,00:37:24,   0.0,  5.0,  241, +9.6,  87.7,    0.4,  +12.8,  +13.2,  +10.2,+1100.00,23
08/10/2011,00:37:49,   0.0,  2.4,  250, +9.6,  87.7,    0.1,  +12.9,  +13.1,  +10.1,+1100.00,27
08/10/2011,00:38:07,   0.0,  4.3,  227, +9.6,  87.7,    0.3,  +12.8,  +13.1,  +10.2,+1100.00,29
08/10/2011,00:38:25,   0.0,  3.1,  233, +9.6,  87.6,    0.3,  +12.8,  +13.2,  +10.1,+1100.00,22
08/10/2011,00:38:43,   0.0,  2.9,  262, +9.6,  87.7,    0.1,  +12.8,  +13.2,  +10.1,+1100.00,2A
08/10/2011,00:39:09,   0.0,  3.4,  219, +9.6,  87.7,    0.1,  +12.8,  +13.1,  +10.1,+1100.00,2A
08/10/2011,00:39:27,   0.0,  3.2,  239, +9.6,  87.7,    0.3,  +12.8,  +13.1,  +10.1,+1100.00,2C
08/10/2011,00:39:45,   0.0,  3.7,  241, +9.6,  87.8,    0.3,  +12.7,  +13.2,  +10.1,+1100.00,2B
08/10/2011,00:40:10,   0.0,  2.5,  259, +9.6,  87.7,    0.2,  +12.8,  +13.1,  +10.1,+1100.00,1F
08/10/2011,00:40:28,   0.0,  4.5,  249, +9.6,  87.7,    0.1,  +12.8,  +13.2,  +10.2,+1100.00,2A
08/10/2011,00:40:46,   0.0,  4.0,  237, +9.6,  87.7,    0.3,  +12.9,  +13.2,  +10.1,+1100.00,24
08/10/2011,00:41:04,   0.0,  2.4,  238, +9.6,  87.6,    0.2,  +12.8,  +13.2,  +10.1,+1100.00,1F
08/10/2011,00:41:30,   0.0,  3.0,  221, +9.6,  87.7,    0.1,  +12.8,  +13.2,  +10.1,+1100.00,13
08/10/2011,00:41:48,   0.0,  3.0,  266, +9.6,  87.7,    0.2,  +12.9,  +13.1,  +10.1,+1100.00,26
08/10/2011,00:42:06,   0.0,  4.3,  274, +9.6,  87.8,    0.2,  +12.8,  +13.2,  +10.1,+1100.00,25
08/10/2011,00:42:24,   0.0,  1.9,  223, +9.6,  87.7,    0.2,  +12.8,  +13.1,  +10.1,+1100.00,20
08/10/2011,00:42:49,   0.0,  3.0,  202, +9.6,  87.7,    0.1,  +12.9,  +13.1,  +10.1,+1100.00,1D
08/10/2011,00:43:07,   0.0,  2.3,  226, +9.6,  87.7,    0.2,  +12.9,  +13.1,  +10.1,+1100.00,21
08/10/2011,00:43:25,   0.0,  1.9,  237, +9.5,  87.7,    0.3,  +13.0,  +13.1,  +10.1,+1100.00,20
08/10/2011,00:43:43,   0.0,  2.9,  237, +9.6,  87.8,    0.1,  +12.8,  +13.1,  +10.1,+1100.00,28
08/10/2011,00:44:09,   0.0,  3.3,  240, +9.6,  87.8,    0.1,  +12.8,  +13.1,  +10.1,+1100.00,20
08/10/2011,00:44:27,   0.0,  4.3,  239, +9.6,  87.8,    0.1,  +12.8,  +13.2,  +10.1,+1100.00,2A
08/10/2011,00:44:45,   0.0,  2.6,  272, +9.6,  87.8,    0.3,  +12.9,  +13.1,  +10.1,+1100.00,2A
08/10/2011,00:45:10,   0.0,  3.6,  246, +9.6,  87.8,    0.1,  +12.9,  +13.1,  +10.1,+1100.00,23
08/10/2011,00:45:28,   0.0,  2.1,  270, +9.6,  87.8,    0.1,  +12.8,  +13.1,  +10.1,+1100.00,22
08/10/2011,00:45:46,   0.0,  2.3,  258, +9.6,  87.8,    0.3,  +12.9,  +13.2,  +10.1,+1100.00,2E
08/10/2011,00:46:04,   0.0,  2.9,  215, +9.6,  87.9,    0.1,  +12.8,  +13.1,  +10.1,+1100.00,25
08/10/2011,00:46:30,   0.0,  3.3,  236, +9.6,  87.8,    0.1,  +12.9,  +13.1,  +10.1,+1100.00,22
08/10/2011,00:46:48,   0.0,  3.2,  233, +9.6,  87.8,    0.2,  +12.9,  +13.1,  +10.1,+1100.00,28
08/10/2011,00:47:06,   0.0,  3.9,  245, +9.6,  87.8,    0.3,  +12.9,  +13.1,  +10.1,+1100.00,2E
08/10/2011,00:47:24,   0.0,  3.8,  269, +9.6,  87.8,    0.2,  +12.8,  +13.2,  +10.1,+1100.00,32
08/10/2011,00:47:49,   0.0,  1.6,  213, +9.5,  87.8,    0.1,  +12.8,  +13.1,  +10.1,+1100.00,27
08/10/2011,00:48:07,   0.0,  5.1,  234, +9.5,  87.9,    0.1,  +12.9,  +13.1,  +10.2,+1100.00,27
08/10/2011,00:48:25,   0.0,  4.6,  230, +9.6,  87.8,    0.2,  +12.9,  +13.2,  +10.1,+1100.00,28
08/10/2011,00:48:43,   0.0,  2.7,  249, +9.6,  87.8,    0.1,  +12.8,  +13.2,  +10.1,+1100.00,2F
08/10/2011,00:49:09,   0.0,  4.2,  224, +9.6,  87.8,    0.2,  +12.8,  +13.1,  +10.1,+1100.00,28
08/10/2011,00:49:27,   0.0,  2.8,  238, +9.5,  87.9,    0.2,  +12.8,  +13.2,  +10.1,+1100.00,32
08/10/2011,00:49:45,   0.0,  5.0,  256, +9.5,  87.8,    0.2,  +12.9,  +13.1,  +10.1,+1100.00,2C
08/10/2011,00:50:10,   0.0,  3.2,  240, +9.5,  87.9,    0.1,  +12.8,  +13.1,  +10.1,+1100.00,14
08/10/2011,00:50:28,   0.0,  3.3,  229, +9.6,  87.9,    0.2,  +12.8,  +13.1,  +10.1,+1100.00,27
08/10/2011,00:50:46,   0.0,  5.1,  229, +9.5,  87.9,    0.2,  +12.9,  +13.1,  +10.0,+1100.00,26
08/10/2011,00:51:04,   0.0,  2.6,  257, +9.5,  87.9,    0.2,  +12.7,  +13.2,  +10.0,+1100.00,23
08/10/2011,00:51:30,   0.0,  2.6,  256, +9.5,  87.9,    0.2,  +12.8,  +13.2,  +10.1,+1100.00,23
08/10/2011,00:51:48,   0.0,  3.0,  222, +9.6,  88.0,    0.2,  +12.9,  +13.1,  +10.1,+1100.00,19
08/10/2011,00:52:06,   0.0,  2.9,  234, +9.5,  88.0,    0.3,  +13.0,  +13.1,  +10.1,+1100.00,17
08/10/2011,00:52:24,   0.0,  4.1,  251, +9.5,  87.9,    0.2,  +12.8,  +13.2,  +10.1,+1100.00,1F
08/10/2011,00:52:49,   0.0,  4.5,  236, +9.5,  87.9,    0.1,  +12.8,  +13.2,  +10.1,+1100.00,2C
08/10/2011,00:53:07,   0.0,  2.8,  232, +9.5,  87.9,    0.1,  +12.8,  +13.2,  +10.1,+1100.00,24
08/10/2011,00:53:25,   0.0,  4.1,  240, +9.6,  87.9,    0.3,  +12.8,  +13.2,  +10.0,+1100.00,20
08/10/2011,00:53:43,   0.0,  4.5,  222, +9.5,  87.9,    0.3,  +12.8,  +13.2,  +10.1,+1100.00,24
08/10/2011,00:54:09,   0.0,  3.3,  252, +9.5,  87.9,    0.1,  +12.8,  +13.2,  +10.0,+1100.00,24
08/10/2011,00:54:27,   0.0,  3.3,  239, +9.5,  87.9,    0.5,  +12.9,  +13.1,  +10.1,+1100.00,2E
08/10/2011,00:54:45,   0.0,  4.2,  230, +9.5,  87.9,    0.1,  +12.9,  +13.0,  +10.1,+1100.00,20
08/10/2011,00:55:10,   0.0,  3.6,  233, +9.5,  87.9,    0.1,  +12.8,  +13.1,  +10.1,+1100.00,1F
08/10/2011,00:55:28,   0.0,  5.2,  249, +9.5,  87.9,    0.2,  +12.9,  +13.1,  +10.1,+1100.00,2F
08/10/2011,00:55:46,   0.0,  3.8,  259, +9.5,  88.0,    0.3,  +13.0,  +13.1,  +10.1,+1100.00,25
08/10/2011,00:56:04,   0.0,  4.3,  252, +9.6,  87.9,    0.2,  +12.8,  +13.2,  +10.1,+1100.00,25
08/10/2011,00:56:30,   0.0,  4.2,  227, +9.5,  88.0,    0.1,  +12.8,  +13.1,  +10.1,+1100.00,1A
08/10/2011,00:56:48,   0.0,  4.9,  237, +9.5,  88.0,    0.3,  +12.8,  +13.2,  +10.1,+1100.00,2E
08/10/2011,00:57:06,   0.0,  4.4,  254, +9.5,  88.0,    0.4,  +12.9,  +13.1,  +10.0,+1100.00,23
08/10/2011,00:57:24,   0.0,  3.3,  247, +9.5,  88.0,    0.1,  +12.7,  +13.2,  +10.0,+1100.00,1F
08/10/2011,00:57:50,   0.0,  3.1,  241, +9.5,  88.1,    0.0,  +12.8,  +13.1,  +10.1,+1100.00,17
08/10/2011,00:58:08,   0.0,  4.1,  243, +9.6,  88.1,    0.5,  +12.8,  +13.2,  +10.0,+1100.00,24
08/10/2011,00:58:26,   0.0,  3.1,  229, +9.5,  88.1,    0.1,  +12.8,  +13.1,  +10.1,+1100.00,22
08/10/2011,00:58:44,   0.0,  3.2,  252, +9.5,  88.1,    0.1,  +12.8,  +13.2,  +10.0,+1100.00,1F
08/10/2011,00:59:10,   0.0,  2.3,  261, +9.6,  88.1,    0.2,  +12.9,  +13.1,  +10.1,+1100.00,1C
08/10/2011,00:59:28,   0.0,  3.2,  238, +9.6,  88.2,    0.3,  +12.8,  +13.2,  +10.0,+1100.00,2A
08/10/2011,00:59:46,   0.0,  1.7,  232, +9.5,  88.1,    0.1,  +12.9,  +13.1,  +10.1,+1100.00,24
08/10/2011,01:00:04,   0.0,  4.2,  257, +9.6,  88.1,    0.2,  +12.9,  +13.1,  +10.1,+1100.00,18
08/10/2011,01:00:30,   0.0,  3.8,  249, +9.6,  88.2,    0.2,  +12.7,  +13.2,  +10.0,+1100.00,1C
08/10/2011,01:00:48,   0.0,  5.4,  189, +9.6,  88.2,    0.3,  +13.0,  +13.1,  +10.1,+1100.00,21
08/10/2011,01:01:06,   0.0,  3.3,  265, +9.6,  88.2,    0.2,  +12.8,  +13.1,  +10.1,+1100.00,1A
08/10/2011,01:01:24,   0.0,  4.3,  229, +9.5,  88.3,    0.1,  +12.8,  +13.2,  +10.0,+1100.00,1A
08/10/2011,01:01:50,   0.0,  3.8,  255, +9.5,  88.5,    0.1,  +12.9,  +13.1,  +10.1,+1100.00,1F
08/10/2011,01:02:08,   0.0,  3.3,  234, +9.6,  88.5,    0.4,  +12.9,  +13.1,  +10.1,+1100.00,1F
08/10/2011,01:02:26,   0.0,  3.2,  245, +9.6,  88.5,    0.1,  +12.8,  +13.1,  +10.1,+1100.00,1C
08/10/2011,01:02:44,   0.0,  2.3,  209, +9.6,  88.6,    0.2,  +12.7,  +13.2,  +10.0,+1100.00,1D
08/10/2011,01:03:10,   0.0,  4.5,  249, +9.6,  88.7,    0.2,  +12.8,  +13.2,  +10.0,+1100.00,21
08/10/2011,01:03:28,   0.0,  3.1,  254, +9.6,  88.7,    0.3,  +12.9,  +13.1,  +10.0,+1100.00,22
08/10/2011,01:03:46,   0.0,  2.7,  250, +9.6,  88.8,    0.2,  +12.9,  +13.1,  +10.1,+1100.00,24
08/10/2011,01:04:04,   0.0,  2.6,  238, +9.6,  88.8,    0.2,  +12.8,  +13.1,  +10.0,+1100.00,22
08/10/2011,01:04:30,   0.0,  3.0,  268, +9.6,  88.8,    0.2,  +12.9,  +13.1,  +10.1,+1100.00,21
08/10/2011,01:04:48,   0.0,  1.8,  236, +9.6,  88.9,    0.3,  +12.9,  +13.2,  +10.0,+1100.00,2D
08/10/2011,01:05:06,   0.0,  2.4,  275, +9.6,  88.9,    0.1,  +12.9,  +13.1,  +10.1,+1100.00,26
08/10/2011,01:05:24,   0.0,  2.1,  263, +9.5,  89.0,    0.2,  +12.8,  +13.2,  +10.1,+1100.00,18
08/10/2011,01:05:50,   0.0,  2.4,  240, +9.5,  89.0,    0.1,  +12.8,  +13.1,  +10.1,+1100.00,13
08/10/2011,01:06:08,   0.0,  2.5,  248, +9.6,  89.0,    0.5,  +12.9,  +13.2,  +10.1,+1100.00,27
08/10/2011,01:06:26,   0.0,  3.6,  301, +9.6,  89.0,    0.1,  +12.8,  +13.2,  +10.1,+1100.00,1A
08/10/2011,01:06:44,   0.0,  4.9,  265, +9.5,  89.0,    0.2,  +12.8,  +13.2,  +10.1,+1100.00,27
08/10/2011,01:07:10,   0.0,  3.4,  234, +9.6,  89.0,    0.3,  +12.7,  +13.2,  +10.1,+1100.00,18
08/10/2011,01:07:28,   0.0,  3.4,  254, +9.6,  89.0,    0.3,  +12.8,  +13.2,  +10.1,+1100.00,24
08/10/2011,01:07:46,   0.0,  3.6,  236, +9.6,  89.1,    0.2,  +12.8,  +13.2,  +10.2,+1100.00,27
08/10/2011,01:08:04,   0.0,  3.3,  239, +9.6,  89.1,    0.2,  +12.9,  +13.1,  +10.2,+1100.00,22
08/10/2011,01:08:30,   0.0,  3.5,  253, +9.5,  89.1,    0.1,  +12.8,  +13.2,  +10.1,+1100.00,1C
08/10/2011,01:08:48,   0.0,  4.7,  265, +9.6,  89.1,    0.1,  +12.9,  +13.2,  +10.1,+1100.00,2D
08/10/2011,01:09:06,   0.0,  3.9,  248, +9.5,  89.1,    0.1,  +12.9,  +13.1,  +10.2,+1100.00,29
08/10/2011,01:09:24,   0.0,  3.6,  267, +9.5,  89.2,    0.1,  +12.8,  +13.1,  +10.2,+1100.00,27
08/10/2011,01:09:50,   0.0,  2.2,  259, +9.6,  89.2,    0.1,  +12.7,  +13.2,  +10.1,+1100.00,22
08/10/2011,01:10:08,   0.0,  2.6,  227, +9.6,  89.2,    0.4,  +12.9,  +13.2,  +10.2,+1100.00,22
08/10/2011,01:10:26,   0.0,  3.5,  230, +9.6,  89.2,    0.1,  +12.8,  +13.2,  +10.1,+1100.00,17
08/10/2011,01:10:44,   0.0,  3.7,  238, +9.5,  89.2,    0.1,  +12.8,  +13.1,  +10.2,+1100.00,20
08/10/2011,01:11:10,   0.0,  2.9,  257, +9.5,  89.2,    0.0,  +12.9,  +13.1,  +10.2,+1100.00,1C
08/10/2011,01:11:28,   0.0,  4.3,  262, +9.6,  89.3,    0.0,  +12.9,  +13.2,  +10.1,+1100.00,1F
08/10/2011,01:11:46,   0.0,  2.6,  245, +9.5,  89.3,    0.1,  +12.9,  +13.1,  +10.2,+1100.00,21
08/10/2011,01:12:04,   0.0,  3.1,  234, +9.6,  89.3,    0.1,  +12.8,  +13.2,  +10.2,+1100.00,17
08/10/2011,01:12:30,   0.0,  3.6,  240, +9.5,  89.3,    0.1,  +12.7,  +13.2,  +10.1,+1100.00,15
08/10/2011,01:12:48,   0.0,  2.5,  261, +9.6,  89.3,    0.4,  +12.8,  +13.2,  +10.1,+1100.00,24
08/10/2011,01:13:06,   0.0,  3.2,  229, +9.5,  89.3,    0.1,  +12.8,  +13.2,  +10.1,+1100.00,1D
08/10/2011,01:13:24,   0.0,  2.8,  246, +9.6,  89.4,    0.1,  +12.8,  +13.2,  +10.2,+1100.00,24
08/10/2011,01:13:50,   0.0,  1.8,  214, +9.5,  89.3,    0.1,  +12.9,  +13.1,  +10.2,+1100.00,1B
08/10/2011,01:14:08,   0.0,  2.0,  223, +9.5,  89.4,    0.3,  +12.9,  +13.2,  +10.1,+1100.00,1B
08/10/2011,01:14:26,   0.0,  4.0,  269, +9.5,  89.4,    0.1,  +12.8,  +13.1,  +10.1,+1100.00,23
08/10/2011,01:14:44,   0.0,  2.2,  222, +9.5,  89.4,    0.1,  +12.8,  +13.1,  +10.2,+1100.00,19
08/10/2011,01:15:10,   0.0,  2.5,  277, +9.5,  89.4,    0.1,  +12.8,  +13.1,  +10.2,+1100.00,20
08/10/2011,01:15:28,   0.0,  1.4,  226, +9.6,  89.5,    0.3,  +13.0,  +13.1,  +10.2,+1100.00,1E
08/10/2011,01:15:46,   0.0,  2.7,  229, +9.6,  89.5,    0.1,  +12.8,  +13.2,  +10.2,+1100.00,2B
08/10/2011,01:16:04,   0.0,  5.2,  231, +9.6,  89.5,    0.2,  +12.8,  +13.2,  +10.2,+1100.00,1E
08/10/2011,01:16:30,   0.0,  3.7,  237, +9.5,  89.5,    0.2,  +12.9,  +13.1,  +10.2,+1100.00,25
08/10/2011,01:16:48,   0.0,  3.7,  239, +9.5,  89.5,    0.3,  +12.9,  +13.1,  +10.2,+1100.00,31
08/10/2011,01:17:06,   0.0,  2.0,  257, +9.6,  89.5,    0.2,  +12.8,  +13.1,  +10.2,+1100.00,23
08/10/2011,01:17:24,   0.0,  2.7,  269, +9.5,  89.5,    0.2,  +12.8,  +13.2,  +10.2,+1100.00,2D
08/10/2011,01:17:50,   0.0,  2.7,  243, +9.6,  89.5,    0.1,  +12.9,  +13.1,  +10.3,+1100.00,25
08/10/2011,01:18:08,   0.0,  5.1,  234, +9.6,  89.6,    0.3,  +12.9,  +13.1,  +10.2,+1100.00,28
08/10/2011,01:18:26,   0.0,  5.4,  234, +9.5,  89.6,    0.1,  +12.9,  +13.1,  +10.2,+1100.00,28
08/10/2011,01:18:44,   0.0,  4.7,  233, +9.6,  89.6,    0.1,  +12.7,  +13.2,  +10.1,+1100.00,28
08/10/2011,01:19:10,   0.0,  2.8,  215, +9.5,  89.6,    0.2,  +13.0,  +13.0,  +10.2,+1100.00,1A
08/10/2011,01:19:28,   0.0,  3.4,  212, +9.5,  89.7,    0.3,  +12.8,  +13.2,  +10.1,+1100.00,27
08/10/2011,01:19:46,   0.0,  2.1,  258, +9.5,  89.7,    0.3,  +12.8,  +13.1,  +10.2,+1100.00,2D
08/10/2011,01:20:04,   0.0,  4.6,  234, +9.5,  89.7,    0.1,  +12.8,  +13.2,  +10.2,+1100.00,1F
08/10/2011,01:20:30,   0.0,  2.3,  195, +9.6,  89.7,    0.3,  +12.7,  +13.2,  +10.1,+1100.00,20
08/10/2011,01:20:48,   0.0,  4.5,  255, +9.6,  89.7,    0.4,  +12.8,  +13.2,  +10.1,+1100.00,2C
08/10/2011,01:21:06,   0.0,  3.6,  229, +9.5,  89.7,    0.2,  +12.8,  +13.2,  +10.1,+1100.00,25
08/10/2011,01:21:24,   0.0,  3.6,  238, +9.5,  89.7,    0.1,  +12.9,  +13.0,  +10.2,+1100.00,24
08/10/2011,01:21:50,   0.0,  4.4,  234, +9.5,  89.8,    0.2,  +12.8,  +13.1,  +10.2,+1100.00,20
08/10/2011,01:22:08,   0.0,  2.6,  209, +9.6,  89.8,    0.3,  +12.9,  +13.2,  +10.2,+1100.00,2A